Weather History for KMGW - January, 2013

Change the Weather History Date:

Sunday, January 27, 2013

  Actual Average Record
Temperature  
Mean Temperature 26 °F 32 °F  
Max Temperature 35 °F 39 °F 64 °F (1967)
Min Temperature 16 °F 24 °F -1 °F (2003)
Degree Days  
Heating Degree Days 39 33  
Month to date heating degree days 865 913  
Since 1 July heating degree days 2723 2897  
Cooling Degree Days 0 0  
Month to date cooling degree days 0 0  
Year to date cooling degree days 0 0  
Moisture  
Dew Point 16 °F    
Average Humidity 67    
Maximum Humidity 84    
Minimum Humidity 49    
Precipitation  
Precipitation 0.00 in 0.09 in 0.93 in (1952)
Month to date precipitation 1.41 2.44  
Year to date precipitation 1.41 2.44  
Sea Level Pressure  
Sea Level Pressure 30.46 in    
Wind  
Wind Speed 2 mph (NNE)    
Max Wind Speed 7 mph    
Max Gust Speed 12 mph    
Visibility 10 miles    
Events      
T = Trace of Precipitation, MM = Missing Value Source: NWS Daily Summary

Daily Weather History Graph

Daily Weather History Graph

Search for Another Location

Airport or City:

Trip Planner

Search our weather history database for the weather conditions in past years. The results will help you decide how hot, cold, wet, or windy it might be!

Date:

Astronomy

Jan. 27, 2013 Rise Set
Actual Time 7:31 AM EST 5:33 PM EST
Civil Twilight 7:02 AM EST 6:02 PM EST
Nautical Twilight 6:30 AM EST 6:35 PM EST
Astronomical Twilight 5:58 AM EST 7:07 PM EST
Moon 6:26 PM EST (1/27) 7:23 AM EST (1/27)
Length of Visible Light 11h 00m
Length of Day
10h 02m
Full, 100% of the Moon is Illuminated
Jan 27
Full
Feb 3
Last Quarter
Feb 10
New
Feb 17
First Quarter
Feb 25
Full

Hourly Weather History & Observations

Time (EST) Temp. Windchill Dew Point Humidity Pressure Visibility Wind Dir Wind Speed Gust Speed Precip Events Conditions
12:53 AM 23.0 °F - 12.9 °F 65% 30.47 in 10.0 mi Calm Calm - N/A   Overcast
1:53 AM 21.9 °F 17.2 °F 12.9 °F 68% 30.49 in 10.0 mi North 3.5 mph - N/A   Overcast
2:53 AM 21.9 °F 17.2 °F 14.0 °F 72% 30.50 in 10.0 mi ENE 3.5 mph - N/A   Overcast
3:53 AM 21.0 °F - 14.0 °F 74% 30.50 in 10.0 mi Calm Calm - N/A   Overcast
4:27 AM 21.2 °F - 14.0 °F 74% 30.44 in 10.0 mi Calm Calm - N/A   Overcast
4:53 AM 19.9 °F - 14.0 °F 78% 30.51 in 10.0 mi Calm Calm - N/A   Overcast
5:53 AM 21.0 °F - 14.0 °F 74% 30.51 in 10.0 mi Calm Calm - N/A   Overcast
6:53 AM 19.0 °F 13.9 °F 14.0 °F 81% 30.52 in 10.0 mi North 3.5 mph - N/A   Overcast
7:41 AM 17.6 °F - 14.0 °F 86% 30.49 in 8.0 mi Calm Calm - N/A   Scattered Clouds
7:53 AM 18.0 °F - 14.0 °F 84% 30.54 in 10.0 mi Calm Calm - N/A   Partly Cloudy
8:53 AM 19.9 °F - 15.1 °F 81% 30.55 in 9.0 mi Calm Calm - N/A   Clear
9:53 AM 23.0 °F 17.0 °F 15.1 °F 72% 30.55 in 10.0 mi NNE 4.6 mph - N/A   Clear
10:53 AM 26.1 °F 21.9 °F 14.0 °F 60% 30.55 in 10.0 mi NE 3.5 mph - 0.01 in   Mostly Cloudy
11:53 AM 28.0 °F 22.8 °F 15.1 °F 58% 30.52 in 10.0 mi SE 4.6 mph - 0.08 in   Clear
12:53 PM 32.0 °F 28.7 °F 16.0 °F 52% 30.48 in 10.0 mi NNE 3.5 mph - 0.11 in   Clear
1:53 PM 33.1 °F 30.0 °F 17.1 °F 52% 30.46 in 10.0 mi Variable 3.5 mph - N/A   Clear
2:53 PM 34.0 °F 29.8 °F 18.0 °F 52% 30.45 in 10.0 mi Variable 4.6 mph - N/A   Overcast
3:53 PM 33.1 °F 28.7 °F 18.0 °F 54% 30.43 in 10.0 mi NNE 4.6 mph - N/A   Clear
4:53 PM 33.1 °F - 17.1 °F 52% 30.43 in 10.0 mi Calm Calm - N/A   Clear
5:53 PM 32.0 °F - 18.0 °F 56% 30.41 in 10.0 mi Calm Calm - N/A   Clear
6:53 PM 30.9 °F 26.2 °F 19.0 °F 61% 30.39 in 10.0 mi North 4.6 mph - N/A   Clear
7:53 PM 30.9 °F - 19.0 °F 61% 30.41 in 10.0 mi Calm Calm - N/A   Mostly Cloudy
8:53 PM 30.9 °F 27.5 °F 19.9 °F 64% 30.40 in 10.0 mi NNE 3.5 mph - N/A   Overcast
9:53 PM 30.9 °F - 19.0 °F 61% 30.38 in 10.0 mi Calm Calm - N/A   Overcast
10:53 PM 30.9 °F - 19.9 °F 64% 30.36 in 10.0 mi Calm Calm - N/A   Overcast
11:53 PM 32.0 °F - 21.0 °F 64% 30.32 in 10.0 mi Calm Calm - N/A   Overcast